Погода в Малом Видном

Россия / Московская область     55°34′20″N   37°44′56″E
темп.,
°C
ветер,
м/с
пор.,
м/с
влажн.,
%
обл.,
%
осадки,
мм/ч
давл.,
гПа
погр.,
м
28 июня, вт
вт2800:00+21сз11700 0.0 101811
03:00+20с22753 0.0 101817
06:00+19св47855 0.0 1020258
09:00+22св57595 0.0 1020692
12:00+24св564319 0.0 10211270
15:00+24св564037 0.0 10211553
18:00+21всв57480 0.0 1021536
21:00+15всв49625 0.0 1023170
29 июня, ср
ср2900:00+12всв36690 0.0 1024102
03:00+10всв33780 0.0 102437
06:00+12всв24740 0.0 1024126
09:00+17в33570 0.0 1024645
12:00+20вюв33450 0.0 10231542
15:00+21ююв23410 0.0 10221767
18:00+21ююз32481 0.0 1021692
21:00+16з11630 0.0 102014
30 июня, чт
чт3000:00+12в23725 0.0 102125
03:00+11всв11741 0.0 102110
06:00+14ссз116864 0.0 102153
09:00+20ссз34485 0.0 1021916
12:00+23с4534100 0.0 10201735
15:00+24с463549 0.0 10191891
18:00+23с474415 0.0 1018431
21:00+18ссв335524 0.0 101929
1 июля, пт
пт100:00+16ссз33660 0.0 102026
03:00+14с22733 0.0 102114
06:00+16с237220 0.0 1021122
09:00+21с35540 0.0 1021737
12:00+25ссв35410 0.0 10202126
15:00+26ссв35358 0.0 10192446
18:00+26ссв344615 0.0 1019909
21:00+19юв33665 0.0 102030
2 июля, сб
сб200:00+16ю226154 0.0 102012
03:00+15зюз2267100 0.0 102013
06:00+18зсз2371100 0.0 102093
09:00+24зсз2454100 0.0 1019497
12:00+28з344037 0.0 10182135
15:00+29зсз4636100 0.0 10172635
18:00+26зсз594684 0.0 1016326
21:00+23сз511565 0.0 1017358